Location: Caltech
(34.1382°N, 118.1253°W)
Time: 22:22:06
(UTC-07:00)

Iridium 95 - Visible Passes

Search period start: 30 July 2014 00:00
Search period end: 09 August 2014 00:00
Orbit: 776 x 779 km, 86.4° (Epoch: 30 July)

Date Brightness Start Highest point End Pass type
(mag) Time Alt. Az. Time Alt. Az. Time Alt. Az.
30 Jul 7.5 04:04:54 10° SE 04:09:12 27° E 04:13:30 10° NNE visible
31 Jul 8.2 03:33:25 10° ESE 03:35:58 14° E 03:38:31 10° NE visible
31 Jul 5.7 05:11:03 10° SSW 05:16:07 53° W 05:21:13 10° N visible
01 Aug 5.6 04:37:24 10° S 04:42:35 78° E 04:47:48 10° N visible
02 Aug 6.8 04:04:22 10° SSE 04:09:10 39° E 04:14:00 10° NNE visible
03 Aug 7.8 03:32:06 10° SE 03:35:52 21° E 03:39:39 10° NE visible
03 Aug 6.2 05:11:32 10° SSW 05:16:16 36° W 05:21:03 10° NNW visible
04 Aug 8.4 03:02:09 10° E 03:02:41 10° ENE 03:03:14 10° ENE visible
04 Aug 5.5 04:38:37 17° S 04:42:40 70° W 04:47:53 10° N visible
05 Aug 6.0 04:05:43 20° SSE 04:09:11 60° E 04:14:19 10° N visible
06 Aug 7.1 03:32:47 17° SE 03:35:49 30° E 03:40:20 10° NNE visible
06 Aug 6.7 05:13:17 14° SW 05:16:28 24° W 05:20:40 10° NNW visible
07 Aug 8.0 02:59:50 11° ESE 03:02:34 16° E 03:05:37 10° NE visible
07 Aug 5.8 04:40:20 27° SW 04:42:48 46° W 04:47:49 10° NNW visible
08 Aug 5.4 04:07:21 41° S 04:09:15 89° E 04:14:28 10° N visible
